This is the latest recevied weather packets stored in our database for station/object W8DRH-13. If no packets are shown the sender has not sent any weather packets the latest 10 day(s).
| Time | Temp. | Humidity | Pressure | Rain* | Wind** | Luminosity | Snow |
|---|---|---|---|---|---|---|---|
| 1778196295 | 13.33° C | 48% | 1010.4 hPa | 0 mm | - | 76 W/m² | - |
| 1778195993 | 13.33° C | 46% | 1010.3 hPa | 0 mm | - | 90 W/m² | - |
| 1778195689 | 13.33° C | 47% | 1010.2 hPa | 0 mm | - | 106 W/m² | - |
| 1778195386 | 13.33° C | 47% | 1010.3 hPa | 0 mm | - | 133 W/m² | - |
| 1778195083 | 13.89° C | 46% | 1010.3 hPa | 0 mm | - | 134 W/m² | - |
| 1778194778 | 13.33° C | 47% | 1010.4 hPa | 0 mm | - | 144 W/m² | - |
| 1778194469 | 13.89° C | 46% | 1010.3 hPa | 0 mm | - | 155 W/m² | - |
| 1778194166 | 13.89° C | 46% | 1010.3 hPa | 0 mm | - | 198 W/m² | - |
| 1778193862 | 13.89° C | 46% | 1010.4 hPa | 0 mm | - | 228 W/m² | - |
| 1778193559 | 13.89° C | 44% | 1010.5 hPa | 0 mm | - | 235 W/m² | - |
| 1778193255 | 14.44° C | 48% | 1010.6 hPa | 0 mm | - | 258 W/m² | - |
| 1778192952 | 13.89° C | 49% | 1010.7 hPa | 0 mm | - | 261 W/m² | - |
| 1778192649 | 13.89° C | 51% | 1010.5 hPa | 0 mm | - | 244 W/m² | - |
| 1778192345 | 13.33° C | 50% | 1010.8 hPa | 0 mm | - | 277 W/m² | - |
| 1778192042 | 12.78° C | 52% | 1010.6 hPa | 0 mm | - | 262 W/m² | - |
| 1778191737 | 12.78° C | 50% | 1010.7 hPa | 0 mm | - | 103 W/m² | - |
| 1778191436 | 12.78° C | 48% | 1010.7 hPa | 0 mm | - | 115 W/m² | - |
| 1778191132 | 13.33° C | 51% | 1010.7 hPa | 0 mm | - | 108 W/m² | - |
| 1778190829 | 13.33° C | 49% | 1010.5 hPa | 0 mm | - | 120 W/m² | - |
| 1778190526 | 13.89° C | 49% | 1010.4 hPa | 0 mm | - | 109 W/m² | - |
| 1778190223 | 13.89° C | 46% | 1010.3 hPa | 0 mm | - | 314 W/m² | - |
| 1778189919 | 14.44° C | 49% | 1010.5 hPa | 0 mm | - | 354 W/m² | - |
| 1778189616 | 14.44° C | 51% | 1010.1 hPa | 0 mm | - | 395 W/m² | - |
| 1778189312 | 13.33° C | 50% | 1010.5 hPa | 0 mm | - | 403 W/m² | - |
| 1778189008 | 12.78° C | 50% | 1010.5 hPa | 0 mm | - | 438 W/m² | - |
* Rain latest hour (hover to see other rain measurements)
** Current wind speed in m/s (hover to see current wind gust speed)